GW2826 Weather Reports


time (UTC)temp
F
wind
direction
speed
knots
gust
knots
rain 1hr
in
rain 24hr
in
rain mn
in
humidity
%
barometer
mb
20260503022104 49 59 0.9 1.7 0.00 0.00 0.00 99 1000.2
20260503022004 49 59 0.9 2.6 0.00 0.00 0.00 99 1000.1
20260503021904 49 60 0.9 2.6 0.00 0.00 0.00 99 1000.0
20260503021804 49 64 0.9 3.5 0.00 0.00 0.00 99 1000.2
20260503021704 49 64 0.9 3.5 0.00 0.00 0.00 99 1000.1
20260503021604 49 67 1.7 3.5 0.00 0.00 0.00 99 1000.0
20260503021504 49 69 1.7 3.5 0.00 0.00 0.00 99 1000.2
20260503021404 49 71 1.7 3.5 0.00 0.00 0.00 99 1000.3
20260503021304 49 73 1.7 3.5 0.00 0.00 0.00 99 1000.2
20260503021204 49 73 1.7 3.5 0.00 0.00 0.00 99 1000.2
20260503021104 48 74 1.7 3.5 0.00 0.00 0.00 99 1000.3
20260503021004 48 74 1.7 3.5 0.00 0.00 0.00 99 1000.2
20260503020925 48 75 2.6 5.2 0.00 0.00 0.00 99 1000.2
20260503020804 48 74 2.6 5.2 0.00 0.00 0.00 99 1000.2
20260503020725 48 73 2.6 5.2 0.00 0.00 0.00 99 1000.2
20260503020604 48 72 2.6 5.2 0.00 0.00 0.00 99 1000.3
20260503020504 48 71 2.6 5.2 0.00 0.00 0.00 99 1000.2
20260503020425 48 70 2.6 5.2 0.00 0.00 0.00 99 1000.2
20260503020304 48 69 2.6 5.2 0.00 0.00 0.00 99 1000.3
20260503020204 48 69 2.6 5.2 0.00 0.00 0.00 99 1000.2
20260503020104 48 68 2.6 5.2 0.00 0.00 0.00 99 1000.2
20260503020004 48 67 2.6 5.2 0.00 0.00 0.00 99 1000.1
20260503015904 49 66 2.6 5.2 0.00 0.00 0.00 99 1000.2
20260503015804 49 66 2.6 3.5 0.00 0.00 0.00 99 1000.2
20260503015725 49 66 2.6 3.5 0.00 0.00 0.00 99 1000.3
20260503015604 49 65 2.6 3.5 0.00 0.00 0.00 99 1000.4
20260503015504 49 66 2.6 3.5 0.00 0.00 0.00 99 1000.2
20260503015425 49 67 1.7 3.5 0.00 0.00 0.00 99 1000.3
20260503015305 49 68 1.7 3.5 0.00 0.00 0.00 99 1000.3
20260503015204 49 66 1.7 3.5 0.00 0.00 0.00 99 1000.4
20260503015104 49 66 1.7 3.5 0.00 0.00 0.00 99 1000.3
20260503015004 49 65 1.7 3.5 0.00 0.00 0.00 99 1000.5
20260503014904 49 63 1.7 3.5 0.00 0.00 0.00 99 1000.4
20260503014825 49 63 1.7 3.5 0.00 0.00 0.00 99 1000.2
20260503014704 49 62 1.7 3.5 0.00 0.00 0.00 99 1000.1
20260503014604 49 62 1.7 3.5 0.00 0.00 0.00 99 1000.3
20260503014504 49 62 1.7 3.5 0.00 0.00 0.00 99 1000.5
20260503014404 49 61 1.7 3.5 0.00 0.00 0.00 99 1000.3
20260503014304 49 62 1.7 3.5 0.00 0.00 0.00 99 1000.3
20260503014225 49 63 1.7 3.5 0.00 0.00 0.00 99 1000.3
20260503014104 49 62 1.7 3.5 0.00 0.00 0.00 99 1000.2
20260503014004 49 64 1.7 3.5 0.00 0.00 0.00 99 1000.5
20260503013904 49 66 1.7 3.5 0.00 0.00 0.00 99 1000.3
20260503013804 49 67 1.7 3.5 0.00 0.00 0.00 99 1000.4
20260503013704 49 68 1.7 3.5 0.00 0.00 0.00 99 1000.4
20260503013604 49 67 1.7 3.5 0.00 0.00 0.00 99 1000.5
20260503013504 49 67 1.7 3.5 0.00 0.00 0.00 99 1000.4
20260503013404 49 66 1.7 3.5 0.00 0.00 0.00 99 1000.4
20260503013304 49 64 1.7 3.5 0.00 0.00 0.00 99 1000.6
20260503013204 49 64 1.7 2.6 0.00 0.00 0.00 99 1000.3
20260503013104 49 65 0.9 2.6 0.00 0.00 0.00 99 1000.6
20260503013004 49 64 0.9 2.6 0.00 0.00 0.00 99 1000.5
20260503012904 49 63 0.9 2.6 0.00 0.00 0.00 99 1000.4
20260503012825 49 63 0.9 2.6 0.00 0.00 0.00 99 1000.3
20260503012704 49 64 0.9 2.6 0.00 0.00 0.00 99 1000.5
20260503012625 49 64 0.9 2.6 0.00 0.00 0.00 99 1000.5
20260503012504 49 64 0.9 2.6 0.00 0.00 0.00 99 1000.4
20260503012425 49 65 0.9 2.6 0.00 0.00 0.00 99 1000.4
20260503012305 49 64 0.9 2.6 0.00 0.00 0.00 99 1000.3
20260503012204 49 63 0.9 2.6 0.00 0.00 0.00 99 1000.5
20260503012104 49 60 0.9 2.6 0.00 0.00 0.00 99 1000.5
20260503012004 49 58 0.9 2.6 0.00 0.00 0.00 99 1000.7
20260503011904 49 53 0.9 2.6 0.00 0.00 0.00 99 1000.5
20260503011804 49 49 0.9 2.6 0.00 0.00 0.00 99 1000.4
20260503011704 49 45 0.9 2.6 0.00 0.00 0.00 99 1000.6
20260503011604 49 43 0.9 1.7 0.00 0.00 0.00 99 1000.6
20260503011504 49 42 0.9 1.7 0.00 0.00 0.00 99 1000.6
20260503011404 49 42 0.9 1.7 0.00 0.00 0.00 99 1000.4
20260503011304 49 42 0.9 1.7 0.00 0.00 0.00 99 1000.5
20260503011204 49 41 0.9 1.7 0.00 0.00 0.00 99 1000.4
20260503011104 49 41 0.9 1.7 0.00 0.00 0.00 99 1000.5
20260503011025 49 37 0.9 2.6 0.00 0.00 0.00 99 1000.6
20260503010904 49 39 0.9 2.6 0.00 0.00 0.00 99 1000.6
20260503010804 49 37 0.9 2.6 0.00 0.00 0.00 99 1000.5
20260503010704 49 33 0.9 2.6 0.00 0.00 0.00 99 1000.6
20260503010604 49 30 0.9 2.6 0.00 0.00 0.00 99 1000.7
20260503010504 49 28 1.7 2.6 0.00 0.00 0.00 99 1000.6
20260503010404 49 25 1.7 2.6 0.00 0.00 0.00 99 1000.6
20260503010304 49 22 1.7 2.6 0.00 0.00 0.00 99 1000.5
20260503010204 49 19 1.7 2.6 0.00 0.00 0.00 99 1000.6
20260503010104 49 17 1.7 2.6 0.00 0.00 0.00 99 1000.6
20260503010004 49 17 1.7 2.6 0.00 0.00 0.00 99 1000.5
20260503005904 49 15 1.7 2.6 0.00 0.00 0.00 99 1000.5
20260503005825 49 14 1.7 2.6 0.00 0.00 0.00 99 1000.7
20260503005704 50 12 0.9 2.6 0.00 0.00 0.00 99 1000.7
20260503005604 50 14 0.9 1.7 0.00 0.00 0.00 99 1000.7
20260503005504 50 11 0.9 1.7 0.00 0.00 0.00 99 1000.6
20260503005404 50 8 0.9 1.7 0.00 0.00 0.00 99 1000.7
20260503005325 50 8 0.9 1.7 0.00 0.00 0.00 99 1000.5
20260503005225 50 6 0.9 1.7 0.00 0.00 0.00 99 1000.6
20260503005104 50 7 0.9 1.7 0.00 0.00 0.00 99 1000.6
20260503005004 50 7 0.9 1.7 0.00 0.00 0.00 99 1000.7
20260503004904 50 7 0.9 1.7 0.00 0.00 0.00 99 1000.5
20260503004804 50 8 0.9 1.7 0.00 0.00 0.00 98 1000.6
20260503004704 50 9 0.9 1.7 0.00 0.00 0.00 98 1000.6
20260503004604 50 10 0.9 1.7 0.00 0.00 0.00 98 1000.7
20260503004504 50 11 0.9 1.7 0.00 0.00 0.00 98 1000.6
20260503004404 50 12 0.9 1.7 0.00 0.00 0.00 98 1000.5
20260503004304 50 14 0.9 1.7 0.00 0.00 0.00 98 1000.4
20260503004204 50 16 0.9 1.7 0.00 0.00 0.00 98 1000.5
20260503004104 50 18 0.9 1.7 0.00 0.00 0.00 98 1000.7
20260503004004 50 19 0.9 1.7 0.00 0.00 0.00 98 1000.8
20260503003904 50 21 0.9 1.7 0.00 0.00 0.00 98 1000.6
20260503003804 50 24 0.9 1.7 0.00 0.00 0.00 98 1000.6
20260503003704 50 28 0.0 1.7 0.00 0.00 0.00 98 1000.4
20260503003604 50 31 0.0 1.7 0.00 0.00 0.00 97 1000.8
20260503003504 50 31 0.0 1.7 0.00 0.00 0.00 97 1000.6
20260503003404 50 29 0.0 1.7 0.00 0.00 0.00 97 1000.6
20260503003325 50 27 0.0 1.7 0.00 0.00 0.00 97 1000.6
20260503003204 50 24 0.0 1.7 0.00 0.00 0.00 97 1000.5
20260503003104 50 22 0.9 1.7 0.00 0.00 0.00 97 1000.5
20260503003025 50 21 0.9 1.7 0.00 0.00 0.00 97 1000.6
20260503002904 50 20 0.9 1.7 0.00 0.00 0.00 97 1000.7
20260503002804 50 18 0.9 1.7 0.00 0.00 0.00 97 1000.8
20260503002704 50 16 0.9 1.7 0.00 0.00 0.00 96 1000.5
20260503002604 50 14 0.9 1.7 0.00 0.00 0.00 96 1000.4
20260503002504 50 13 0.9 1.7 0.00 0.00 0.00 96 1000.6
20260503002404 50 13 0.9 1.7 0.00 0.00 0.00 96 1000.5
20260503002305 50 13 0.9 1.7 0.00 0.00 0.00 96 1000.3
20260503002204 50 13 0.9 1.7 0.00 0.00 0.00 96 1000.5
20260503002104 50 13 0.9 1.7 0.00 0.00 0.00 96 1000.5
20260503002004 50 13 0.9 1.7 0.00 0.00 0.00 96 1000.4
20260503001904 50 13 0.9 1.7 0.00 0.00 0.00 95 1000.6
20260503001804 50 13 0.9 1.7 0.00 0.00 0.00 95 1000.7
20260503001704 50 13 0.9 1.7 0.00 0.00 0.00 95 1000.5
20260503001604 50 13 0.0 1.7 0.00 0.00 0.00 95 1000.6
20260503001504 50 13 0.0 1.7 0.00 0.00 0.00 95 1000.5
20260503001404 50 13 0.0 1.7 0.00 0.00 0.00 95 1000.3
20260503001304 50 13 0.0 1.7 0.00 0.00 0.00 95 1000.5
20260503001204 50 13 0.0 1.7 0.00 0.00 0.00 95 1000.6
20260503001104 50 13 0.0 0.9 0.00 0.00 0.00 95 1000.5
20260503001004 50 13 0.0 0.9 0.00 0.00 0.00 95 1000.5
20260503000904 50 13 0.0 0.9 0.00 0.00 0.00 95 1000.5
20260503000803 50 24 0.0 0.9 0.00 0.00 0.00 95 1000.5
20260503000704 50 31 0.0 0.9 0.00 0.00 0.00 95 1000.7
20260503000604 50 37 0.0 1.7 0.00 0.00 0.00 95 1000.6
20260503000504 50 42 0.0 1.7 0.00 0.00 0.00 95 1000.5
20260503000404 50 47 0.0 1.7 0.00 0.00 0.00 95 1000.6
20260503000304 50 50 0.0 1.7 0.00 0.00 0.00 95 1000.7
20260503000204 50 53 0.9 1.7 0.00 0.00 0.00 95 1000.6
20260503000104 50 57 0.9 1.7 0.00 0.00 0.00 95 1000.7
20260503000004 50 61 0.9 1.7 0.00 0.00 0.00 95 1000.6
20260502235904 50 65 0.9 1.7 0.00 0.00 0.00 96 1000.4
20260502235825 50 67 0.9 1.7 0.00 0.00 0.00 96 1000.5
20260502235704 50 68 0.9 1.7 0.00 0.00 0.00 96 1000.5
20260502235604 50 69 0.9 1.7 0.00 0.00 0.00 96 1000.4
20260502235504 50 71 0.9 1.7 0.00 0.00 0.00 96 1000.6
20260502235404 50 71 0.9 1.7 0.00 0.00 0.00 96 1000.6
20260502235305 50 71 0.9 1.7 0.00 0.00 0.00 96 1000.4
20260502235204 50 72 0.9 1.7 0.00 0.00 0.00 97 1000.5
20260502235104 50 72 0.0 1.7 0.00 0.00 0.00 97 1000.4
20260502235004 50 72 0.0 1.7 0.00 0.00 0.00 97 1000.7
20260502234925 49 72 0.0 1.7 0.00 0.00 0.00 97 1000.5
20260502234804 49 72 0.0 0.9 0.00 0.00 0.00 97 1000.7
20260502234704 49 72 0.0 0.9 0.00 0.00 0.00 97 1000.6
20260502234604 49 0 0.0 0.0 0.00 0.00 0.00 97 1000.7
20260502234504 49 0 0.0 0.0 0.00 0.00 0.00 97 1000.6
20260502234404 49 0 0.0 0.0 0.00 0.00 0.00 97 1000.5
20260502234304 49 0 0.0 0.0 0.00 0.00 0.00 97 1000.7
20260502234204 49 0 0.0 0.0 0.00 0.00 0.00 97 1000.6
20260502234104 49 0 0.0 0.0 0.00 0.00 0.00 97 1000.7
20260502234004 49 0 0.0 0.0 0.00 0.00 0.00 97 1000.7
20260502233904 49 0 0.0 0.0 0.00 0.00 0.00 97 1000.6
20260502233804 49 0 0.0 0.0 0.00 0.00 0.00 97 1000.6
20260502233704 49 0 0.0 0.0 0.00 0.00 0.00 97 1000.7
20260502233604 49 0 0.0 0.0 0.00 0.00 0.00 97 1000.6
20260502233504 49 0 0.0 0.0 0.00 0.00 0.00 97 1000.9
20260502233404 49 0 0.0 0.0 0.00 0.00 0.00 97 1000.8
20260502233304 49 0 0.0 0.0 0.00 0.00 0.00 97 1000.7
20260502233203 49 0 0.0 0.0 0.00 0.00 0.00 97 1000.7
20260502233104 49 0 0.0 0.0 0.00 0.00 0.00 97 1000.7
20260502233004 49 0 0.0 0.0 0.00 0.00 0.00 97 1000.8
20260502232904 49 0 0.0 0.0 0.00 0.00 0.00 97 1000.9
20260502232804 49 0 0.0 0.0 0.00 0.00 0.00 98 1000.9
20260502232704 49 0 0.0 0.0 0.00 0.00 0.00 98 1000.7
20260502232604 49 0 0.0 0.0 0.00 0.00 0.00 98 1000.7
20260502232504 49 0 0.0 0.0 0.00 0.00 0.00 98 1000.8
20260502232404 49 0 0.0 0.0 0.00 0.00 0.00 98 1000.8
20260502232325 49 0 0.0 0.0 0.00 0.00 0.00 98 1001.0
20260502232225 49 0 0.0 0.0 0.00 0.00 0.00 98 1000.8
20260502232103 49 0 0.0 0.0 0.00 0.00 0.00 98 1000.7
20260502232004 49 0 0.0 0.0 0.00 0.00 0.00 98 1000.6
20260502231904 49 0 0.0 0.0 0.00 0.00 0.00 98 1001.0
20260502231804 49 0 0.0 0.0 0.00 0.00 0.00 98 1000.9
20260502231704 49 0 0.0 0.0 0.00 0.00 0.00 98 1000.9
20260502231604 49 0 0.0 0.0 0.00 0.00 0.00 98 1000.9
20260502231503 49 0 0.0 0.0 0.00 0.00 0.00 98 1000.9
20260502231425 49 0 0.0 0.0 0.00 0.00 0.00 98 1001.0
20260502231304 49 0 0.0 0.0 0.00 0.00 0.00 98 1000.8
20260502231204 49 0 0.0 0.0 0.00 0.00 0.00 98 1000.8
20260502231104 49 0 0.0 0.0 0.00 0.00 0.00 98 1000.8
20260502231004 49 0 0.0 0.0 0.00 0.00 0.00 98 1000.8
20260502230904 49 0 0.0 0.0 0.00 0.00 0.00 98 1001.0
20260502230825 49 0 0.0 0.0 0.00 0.00 0.00 98 1001.0
20260502230704 49 0 0.0 0.0 0.00 0.00 0.00 98 1000.9
20260502230604 49 0 0.0 0.0 0.00 0.00 0.00 98 1000.9
20260502230525 49 0 0.0 0.0 0.00 0.00 0.00 98 1000.8
20260502230424 49 0 0.0 0.0 0.00 0.00 0.00 98 1000.8
20260502230304 49 72 0.0 0.9 0.00 0.00 0.00 98 1000.8
20260502230204 49 72 0.0 0.9 0.00 0.00 0.00 98 1000.8
20260502230104 49 72 0.0 0.9 0.00 0.00 0.00 98 1000.8
20260502230004 49 72 0.0 0.9 0.00 0.00 0.00 98 1000.9
20260502225904 49 72 0.0 0.9 0.00 0.00 0.00 98 1001.0
20260502225804 49 72 0.0 0.9 0.00 0.00 0.00 98 1000.8
20260502225704 49 72 0.0 0.9 0.00 0.00 0.00 98 1001.1
20260502225603 49 72 0.0 0.9 0.00 0.00 0.00 98 1000.7
20260502225504 49 72 0.0 0.9 0.00 0.00 0.00 98 1000.7
20260502225404 49 72 0.0 0.9 0.00 0.00 0.00 98 1001.0
20260502225304 49 72 0.0 0.9 0.00 0.00 0.00 98 1000.9
20260502225204 49 72 0.0 0.9 0.00 0.00 0.00 98 1001.1
20260502225104 49 72 0.0 0.9 0.00 0.00 0.00 98 1001.1
20260502225004 49 72 0.0 0.9 0.00 0.00 0.00 98 1001.1
20260502224904 49 72 0.0 0.9 0.00 0.00 0.00 99 1001.1
20260502224804 49 72 0.0 0.9 0.00 0.00 0.00 99 1001.1
20260502224704 49 72 0.0 0.9 0.00 0.00 0.00 99 1001.3
20260502224604 49 72 0.0 0.9 0.00 0.00 0.00 99 1001.1
20260502224504 49 0 0.0 0.0 0.00 0.00 0.00 99 1001.0
20260502224404 49 0 0.0 0.0 0.00 0.00 0.00 99 1001.0
20260502224303 49 0 0.0 0.0 0.00 0.00 0.00 99 1001.2
20260502224225 49 0 0.0 0.0 0.00 0.00 0.00 99 1001.1
20260502224104 49 0 0.0 0.0 0.00 0.00 0.00 99 1001.0
20260502224004 49 0 0.0 0.0 0.00 0.00 0.00 99 1001.1
20260502223904 49 0 0.0 0.0 0.00 0.00 0.00 99 1001.2
20260502223804 49 0 0.0 0.0 0.00 0.00 0.00 99 1001.1
20260502223704 49 0 0.0 0.0 0.00 0.00 0.00 99 1001.0
20260502223604 49 0 0.0 0.0 0.00 0.00 0.00 99 1001.0
20260502223504 49 0 0.0 0.0 0.00 0.00 0.00 99 1001.1
20260502223425 49 0 0.0 0.0 0.00 0.00 0.00 99 1001.1
20260502223304 49 72 0.0 0.9 0.00 0.00 0.00 99 1001.2
20260502223204 49 72 0.0 0.9 0.00 0.00 0.00 99 1001.1
20260502223104 49 72 0.0 0.9 0.00 0.00 0.00 99 1001.2
20260502223004 49 72 0.0 0.9 0.00 0.00 0.00 99 1001.2
20260502222925 49 72 0.0 0.9 0.00 0.00 0.00 99 1001.2
20260502222804 49 72 0.0 0.9 0.00 0.00 0.00 99 1001.2
20260502222704 49 72 0.0 0.9 0.00 0.00 0.00 99 1001.2
20260502222625 49 72 0.0 0.9 0.00 0.00 0.00 99 1001.3
20260502222525 49 72 0.0 0.9 0.00 0.00 0.00 99 1000.9
20260502222404 49 72 0.0 0.9 0.00 0.00 0.00 99 1000.9
20260502222305 49 72 0.0 0.9 0.00 0.00 0.00 99 1000.9
20260502222204 49 0 0.0 0.0 0.00 0.00 0.00 99 1001.1
20260502222104 49 0 0.0 0.0 0.00 0.00 0.00 99 1001.2
20260502222004 49 0 0.0 0.0 0.00 0.00 0.00 99 1001.1
20260502221903 49 0 0.0 0.0 0.00 0.00 0.00 99 1001.0
20260502221804 49 0 0.0 0.0 0.00 0.00 0.00 99 1001.3
20260502221704 49 0 0.0 0.0 0.00 0.00 0.00 99 1001.3
20260502221604 49 0 0.0 0.0 0.00 0.00 0.00 99 1001.2
20260502221504 49 0 0.0 0.0 0.00 0.00 0.00 99 1001.2
20260502221404 49 72 0.0 0.9 0.00 0.00 0.00 99 1001.2
20260502221304 49 72 0.0 0.9 0.00 0.00 0.00 99 1001.2
20260502221204 49 72 0.0 0.9 0.00 0.00 0.00 99 1001.2
20260502221103 49 72 0.0 0.9 0.00 0.00 0.00 99 1001.1
20260502221004 49 72 0.0 0.9 0.00 0.00 0.00 99 1001.3
20260502220904 49 72 0.0 0.9 0.00 0.00 0.00 99 1001.2
20260502220825 49 72 0.0 0.9 0.00 0.00 0.00 99 1001.2
20260502220704 49 72 0.0 0.9 0.00 0.00 0.00 99 1001.2
20260502220603 49 72 0.0 0.9 0.00 0.00 0.00 99 1001.4
20260502220403 49 72 0.0 0.9 0.00 0.00 0.00 99 1001.3
20260502220304 49 72 0.0 0.9 0.00 0.00 0.00 99 1001.4
20260502220204 49 72 0.0 0.9 0.00 0.00 0.00 99 1001.3
20260502220104 49 72 0.0 0.9 0.00 0.00 0.00 99 1001.2
20260502220004 49 72 0.0 0.9 0.00 0.00 0.00 99 1001.2
20260502215904 49 72 0.0 0.9 0.00 0.00 0.00 99 1001.2
20260502215804 49 72 0.0 0.9 0.00 0.00 0.00 99 1001.4
20260502215703 49 72 0.0 0.9 0.00 0.00 0.00 99 1001.4
20260502215604 49 72 0.0 0.9 0.00 0.00 0.00 99 1001.4
20260502215504 49 72 0.0 0.9 0.00 0.00 0.00 99 1001.4
20260502215404 49 72 0.0 0.9 0.00 0.00 0.00 99 1001.4
20260502215305 49 72 0.0 0.9 0.00 0.00 0.00 99 1001.5
20260502215225 49 72 0.0 0.9 0.00 0.00 0.00 99 1001.4
20260502215124 49 72 0.0 0.9 0.00 0.00 0.00 99 1001.3
20260502215004 49 72 0.0 1.7 0.00 0.00 0.00 99 1001.4
20260502214904 49 72 0.0 1.7 0.00 0.00 0.00 99 1001.3
20260502214804 49 72 0.0 1.7 0.00 0.00 0.00 99 1001.1
20260502214725 49 72 0.0 1.7 0.00 0.00 0.00 99 1001.1
20260502214604 49 72 0.9 1.7 0.00 0.00 0.00 99 1001.5
20260502214504 49 72 0.9 1.7 0.00 0.00 0.00 99 1001.4
20260502214404 49 72 0.9 1.7 0.00 0.00 0.00 99 1001.4
20260502214325 49 72 0.9 1.7 0.00 0.00 0.00 99 1001.2
20260502214225 49 72 0.9 1.7 0.00 0.00 0.00 99 1001.2
20260502214104 49 72 0.9 1.7 0.00 0.00 0.00 99 1001.4
20260502214003 49 72 0.9 1.7 0.00 0.00 0.00 99 1001.4
20260502213904 49 72 0.9 1.7 0.00 0.00 0.00 99 1001.5
20260502213804 49 73 0.9 1.7 0.00 0.00 0.00 99 1001.2
20260502213725 49 73 0.9 1.7 0.00 0.00 0.00 99 1001.5
20260502213603 49 73 0.9 1.7 0.00 0.00 0.00 99 1001.4
20260502213504 49 73 0.9 1.7 0.00 0.00 0.00 99 1001.4
20260502213403 49 73 0.9 2.6 0.00 0.00 0.00 99 1001.4
20260502213304 49 74 0.9 2.6 0.00 0.00 0.00 99 1001.2
20260502213204 49 74 0.9 2.6 0.00 0.00 0.00 99 1001.5
20260502213103 49 74 0.9 2.6 0.00 0.00 0.00 99 1001.4
20260502213004 49 74 0.9 2.6 0.00 0.00 0.00 99 1001.4
20260502212904 49 75 1.7 2.6 0.00 0.00 0.00 99 1001.5
20260502212804 49 75 1.7 2.6 0.00 0.00 0.00 99 1001.3
20260502212703 49 75 1.7 2.6 0.00 0.00 0.00 99 1001.4
20260502212604 49 75 1.7 2.6 0.00 0.00 0.00 99 1001.6
20260502212503 49 76 1.7 2.6 0.00 0.00 0.00 99 1001.6
20260502212404 49 76 1.7 2.6 0.00 0.00 0.00 99 1001.3
20260502212305 49 76 1.7 2.6 0.00 0.00 0.00 99 1001.4
20260502212203 49 76 1.7 2.6 0.00 0.00 0.00 99 1001.6
20260502212104 49 76 1.7 2.6 0.00 0.00 0.00 99 1001.6
20260502212004 49 76 1.7 2.6 0.00 0.00 0.00 99 1001.4
20260502211904 49 76 1.7 2.6 0.00 0.00 0.00 99 1001.4
20260502211804 49 76 1.7 2.6 0.00 0.00 0.00 99 1001.6
20260502211704 49 76 1.7 2.6 0.00 0.00 0.00 99 1001.5
20260502211604 49 76 1.7 2.6 0.00 0.00 0.00 99 1001.7
20260502211525 49 76 1.7 2.6 0.00 0.00 0.00 99 1001.5
20260502211404 49 76 1.7 1.7 0.00 0.00 0.00 99 1001.6
20260502211304 49 76 0.9 1.7 0.00 0.00 0.00 99 1001.6
20260502211203 49 76 0.9 1.7 0.00 0.00 0.00 99 1001.4
20260502211104 49 76 0.9 1.7 0.00 0.00 0.00 99 1001.5
20260502211003 49 76 0.9 1.7 0.00 0.00 0.00 99 1001.7
20260502210904 49 76 0.9 1.7 0.00 0.00 0.00 99 1001.6
20260502210803 49 76 0.9 1.7 0.00 0.00 0.00 99 1001.5
20260502210704 49 76 0.0 1.7 0.00 0.00 0.00 99 1001.6
20260502210603 49 76 0.0 1.7 0.00 0.00 0.00 99 1001.6
20260502210504 49 76 0.0 0.9 0.00 0.00 0.00 99 1001.5
20260502210403 50 0 0.0 0.0 0.00 0.00 0.00 99 1001.6
20260502210304 50 76 0.0 0.9 0.00 0.00 0.00 99 1001.6
20260502210204 50 76 0.0 0.9 0.00 0.00 0.00 99 1001.6
20260502210104 50 76 0.0 0.9 0.00 0.00 0.00 99 1001.7
20260502210025 50 76 0.0 0.9 0.00 0.00 0.00 99 1001.5
20260502205904 50 76 0.0 0.9 0.00 0.00 0.00 99 1001.6
20260502205804 50 76 0.0 0.9 0.00 0.00 0.00 99 1001.6
20260502205704 50 76 0.0 1.7 0.00 0.00 0.00 99 1001.7
20260502205604 50 76 0.0 1.7 0.00 0.00 0.00 99 1001.7
20260502205504 50 76 0.9 1.7 0.00 0.00 0.00 99 1001.8
20260502205403 50 76 0.9 1.7 0.00 0.00 0.00 99 1001.8
20260502205305 50 76 0.9 1.7 0.00 0.00 0.00 99 1001.6
20260502205225 50 76 0.9 1.7 0.00 0.00 0.00 99 1001.6
20260502205104 50 76 0.9 1.7 0.00 0.00 0.00 99 1001.6
20260502205004 49 76 0.9 1.7 0.00 0.00 0.00 99 1001.9
20260502204904 49 76 0.9 1.7 0.00 0.00 0.00 99 1001.8
20260502204825 49 76 0.9 1.7 0.00 0.00 0.00 99 1001.6
20260502204704 50 76 0.9 1.7 0.00 0.00 0.00 99 1001.8
20260502204624 50 76 0.9 1.7 0.00 0.00 0.00 99 1001.7
20260502204504 49 76 0.9 0.9 0.00 0.00 0.00 99 1001.6
20260502204424 49 76 0.9 0.9 0.00 0.00 0.00 99 1001.7
20260502204304 49 76 0.9 0.9 0.00 0.00 0.00 99 1001.7
20260502204204 49 76 0.9 0.9 0.00 0.00 0.00 99 1001.7
20260502204104 50 76 0.9 0.9 0.00 0.00 0.00 99 1001.7
20260502204004 50 76 0.9 0.9 0.00 0.00 0.00 99 1001.7
20260502203903 50 76 0.9 0.9 0.00 0.00 0.00 99 1001.7
20260502203804 50 76 0.9 1.7 0.00 0.00 0.00 98 1001.7
20260502203703 50 76 0.9 1.7 0.00 0.00 0.00 98 1001.7
20260502203604 50 76 0.9 1.7 0.00 0.00 0.00 98 1001.7
20260502203503 50 76 0.9 1.7 0.00 0.00 0.00 98 1001.9
20260502203404 50 76 0.9 1.7 0.00 0.00 0.00 98 1001.7
20260502203304 50 76 0.9 1.7 0.00 0.00 0.00 98 1001.7
20260502203203 50 76 0.9 1.7 0.00 0.00 0.00 98 1001.7
20260502203125 50 76 0.9 1.7 0.00 0.00 0.00 98 1001.6
20260502203004 50 76 0.9 1.7 0.00 0.00 0.00 98 1001.9
20260502202925 50 76 0.9 1.7 0.00 0.00 0.00 98 1001.7
20260502202803 50 76 0.9 1.7 0.00 0.00 0.00 98 1001.7
20260502202704 50 76 0.9 1.7 0.00 0.00 0.00 98 1001.9
20260502202603 50 76 0.9 1.7 0.00 0.00 0.00 98 1001.9
20260502202504 50 76 0.9 0.9 0.00 0.00 0.00 98 1001.7
20260502202404 50 76 0.0 0.9 0.00 0.00 0.00 98 1001.8
20260502202325 50 76 0.0 0.9 0.00 0.00 0.00 98 1001.8
20260502202225 50 76 0.0 0.9 0.00 0.00 0.00 98 1001.5
20260502202104 50 76 0.0 1.7 0.00 0.00 0.00 98 1001.6
20260502202003 50 76 0.0 1.7 0.00 0.00 0.00 98 1001.7
20260502201904 50 76 0.0 1.7 0.00 0.00 0.00 98 1001.9
20260502201803 50 76 0.9 1.7 0.00 0.00 0.00 98 1001.6
20260502201725 50 76 0.9 1.7 0.00 0.00 0.00 98 1001.5
20260502201624 50 78 0.9 1.7 0.00 0.00 0.00 98 1001.9
20260502201525 50 81 0.9 1.7 0.00 0.00 0.00 98 1001.6
20260502201403 50 85 0.9 1.7 0.00 0.00 0.00 98 1001.8
20260502201304 50 87 0.9 1.7 0.00 0.00 0.00 98 1001.7
20260502201203 50 88 0.9 1.7 0.00 0.00 0.00 98 1001.8
20260502201125 50 89 0.9 1.7 0.00 0.00 0.00 98 1001.9
20260502201004 50 92 0.9 1.7 0.00 0.00 0.00 98 1001.7
20260502200903 50 96 0.9 1.7 0.00 0.00 0.00 98 1001.8
20260502200804 50 100 0.9 1.7 0.00 0.00 0.00 98 1001.6
20260502200703 50 105 0.9 1.7 0.00 0.00 0.00 98 1001.7
20260502200604 50 107 0.9 1.7 0.00 0.00 0.00 98 1001.7
20260502200503 50 107 0.9 1.7 0.00 0.00 0.00 98 1002.0
20260502200403 50 107 0.9 1.7 0.00 0.00 0.00 98 1001.8
20260502200304 50 107 0.9 1.7 0.00 0.00 0.00 97 1001.9
20260502200204 50 107 0.9 1.7 0.00 0.00 0.00 97 1001.7
20260502200104 50 107 0.9 1.7 0.00 0.00 0.00 97 1001.8
20260502200004 50 107 0.9 1.7 0.00 0.00 0.00 97 1001.9
20260502195904 50 107 0.9 1.7 0.00 0.00 0.00 97 1001.7
20260502195803 50 107 0.9 1.7 0.00 0.00 0.00 97 1001.8
20260502195704 50 107 0.9 1.7 0.00 0.00 0.00 97 1001.6
20260502195604 50 107 0.9 1.7 0.00 0.00 0.00 97 1001.8
20260502195504 50 107 0.9 1.7 0.00 0.00 0.00 97 1001.7
20260502195403 50 107 0.9 1.7 0.00 0.00 0.00 97 1001.9
20260502195325 50 107 0.9 1.7 0.00 0.00 0.00 97 1001.6
20260502195203 50 107 0.9 2.6 0.00 0.00 0.00 97 1001.7
20260502195103 50 107 0.9 2.6 0.00 0.00 0.00 97 1001.7
20260502195004 50 106 0.9 2.6 0.00 0.00 0.00 96 1001.6
20260502194903 50 107 0.9 2.6 0.00 0.00 0.00 96 1001.7
20260502194825 50 107 0.9 2.6 0.00 0.00 0.00 96 1001.7
20260502194703 50 107 0.9 2.6 0.00 0.00 0.00 96 1001.7
20260502194604 50 107 0.9 2.6 0.00 0.00 0.00 96 1001.7
20260502194504 50 107 0.9 2.6 0.00 0.00 0.00 96 1001.7
20260502194404 50 108 0.9 2.6 0.00 0.00 0.00 96 1001.9
20260502194303 50 111 0.9 2.6 0.00 0.00 0.00 96 1001.7
20260502194204 51 123 0.9 2.6 0.00 0.00 0.00 96 1001.6
20260502194103 51 262 0.9 2.6 0.00 0.00 0.00 96 1001.5
20260502194004 51 277 0.9 2.6 0.00 0.00 0.00 96 1001.4
20260502193903 51 278 0.9 2.6 0.00 0.00 0.00 95 1001.7
20260502193804 51 279 0.9 2.6 0.00 0.00 0.00 95 1001.5
20260502193703 51 279 0.9 2.6 0.00 0.00 0.00 95 1001.4
20260502193604 51 279 0.9 2.6 0.00 0.00 0.00 95 1001.7
20260502193503 51 277 0.9 2.6 0.00 0.00 0.00 95 1001.6
20260502193404 51 277 1.7 3.5 0.00 0.00 0.00 95 1001.6
20260502193303 51 278 1.7 3.5 0.00 0.00 0.00 95 1001.7
20260502193204 51 281 1.7 3.5 0.00 0.00 0.00 95 1001.7
20260502193103 51 281 1.7 3.5 0.00 0.00 0.00 95 1001.5
20260502193004 51 281 1.7 3.5 0.00 0.00 0.00 95 1001.6
20260502192904 51 282 1.7 3.5 0.00 0.00 0.00 95 1001.6
20260502192825 51 283 1.7 3.5 0.00 0.00 0.00 95 1001.5
20260502192704 51 283 2.6 3.5 0.00 0.00 0.00 95 1001.5
20260502192603 51 284 2.6 3.5 0.00 0.00 0.00 95 1001.5
20260502192503 51 286 2.6 3.5 0.00 0.00 0.00 95 1001.7
20260502192404 51 287 2.6 3.5 0.00 0.00 0.00 95 1001.4
20260502192325 51 287 2.6 3.5 0.00 0.00 0.00 95 1001.6
20260502192204 51 285 2.6 3.5 0.00 0.00 0.00 95 1001.6
20260502192104 51 288 2.6 3.5 0.00 0.00 0.00 95 1001.7
20260502192003 51 286 2.6 3.5 0.00 0.00 0.00 95 1001.5
20260502191904 51 285 1.7 2.6 0.00 0.00 0.00 95 1001.8
20260502191804 51 286 0.9 2.6 0.00 0.00 0.00 94 1001.6
20260502191605 51 23 0.9 1.7 0.00 0.00 0.00 94 1001.8
20260502191504 51 27 0.9 1.7 0.00 0.00 0.00 94 1001.7
20260502191404 51 31 0.9 1.7 0.00 0.00 0.00 93 1001.6
20260502191325 51 31 0.9 1.7 0.00 0.00 0.00 93 1001.6
20260502191204 51 31 0.9 1.7 0.00 0.00 0.00 93 1001.6
20260502191105 51 30 0.9 1.7 0.00 0.00 0.00 93 1001.5
20260502191004 51 30 0.9 1.7 0.00 0.00 0.00 93 1001.8
20260502190905 51 30 0.0 1.7 0.00 0.00 0.00 93 1001.4
20260502190825 51 27 0.0 1.7 0.00 0.00 0.00 92 1001.6
20260502190704 51 21 0.0 1.7 0.00 0.00 0.00 92 1001.5
20260502190605 52 12 0.0 1.7 0.00 0.00 0.00 92 1001.5
20260502190504 52 356 0.0 1.7 0.00 0.00 0.00 92 1001.4
20260502190404 52 334 0.0 2.6 0.00 0.00 0.00 92 1001.6
20260502190304 52 317 0.0 2.6 0.00 0.00 0.00 92 1001.6
20260502190204 52 303 0.9 3.5 0.00 0.00 0.00 92 1001.5
20260502190104 52 295 0.9 3.5 0.00 0.00 0.00 92 1001.5
20260502190005 52 287 0.9 3.5 0.00 0.00 0.00 91 1001.5
20260502185926 52 285 0.9 3.5 0.00 0.00 0.00 91 1001.6
20260502185826 52 281 0.9 3.5 0.00 0.00 0.00 91 1001.6
20260502185725 52 281 1.7 3.5 0.00 0.00 0.00 91 1001.4
20260502185604 52 283 1.7 3.5 0.00 0.00 0.00 91 1001.6
20260502185504 52 282 1.7 3.5 0.00 0.00 0.00 91 1001.8
20260502185425 52 281 1.7 3.5 0.00 0.00 0.00 91 1001.4
20260502185305 52 281 1.7 3.5 0.00 0.00 0.00 91 1001.5
20260502185204 52 281 1.7 3.5 0.00 0.00 0.00 91 1001.7
20260502185105 52 280 1.7 3.5 0.00 0.00 0.00 91 1001.4
20260502185004 52 280 0.9 3.5 0.00 0.00 0.00 91 1001.8
20260502184905 52 278 0.9 3.5 0.00 0.00 0.00 91 1001.6
20260502184804 52 278 1.7 3.5 0.00 0.00 0.00 91 1001.4
20260502184704 52 278 1.7 3.5 0.00 0.00 0.00 91 1001.6
20260502184625 52 277 1.7 3.5 0.00 0.00 0.00 91 1001.6
20260502184504 52 277 1.7 3.5 0.00 0.00 0.00 91 1001.7
20260502184404 52 279 1.7 3.5 0.00 0.00 0.00 91 1001.5
20260502184305 52 280 1.7 3.5 0.00 0.00 0.00 91 1001.5
20260502184204 52 281 1.7 3.5 0.00 0.00 0.00 91 1001.5
20260502184104 52 280 1.7 3.5 0.00 0.00 0.00 91 1001.6
20260502184004 52 278 2.6 5.2 0.00 0.00 0.00 91 1001.5
20260502183905 52 278 2.6 5.2 0.00 0.00 0.00 91 1001.5
20260502183804 52 280 2.6 5.2 0.00 0.00 0.00 90 1001.6
20260502183704 52 281 2.6 5.2 0.00 0.00 0.00 91 1001.5
20260502183604 52 282 2.6 5.2 0.00 0.00 0.00 91 1001.4
20260502183525 52 283 2.6 5.2 0.00 0.00 0.00 91 1001.5
20260502183405 52 283 2.6 5.2 0.00 0.00 0.00 91 1001.4
20260502183304 52 282 2.6 5.2 0.00 0.00 0.00 90 1001.6
20260502183205 52 282 2.6 5.2 0.00 0.00 0.00 91 1001.5
20260502183104 52 282 2.6 5.2 0.00 0.00 0.00 91 1001.5
20260502182904 52 286 2.6 6.1 0.00 0.00 0.00 91 1001.5
20260502182804 52 284 3.5 6.1 0.00 0.00 0.00 91 1001.3
20260502182704 52 283 3.5 6.1 0.00 0.00 0.00 91 1001.4
20260502182604 52 283 3.5 6.1 0.00 0.00 0.00 91 1001.3
20260502182504 52 282 3.5 6.1 0.00 0.00 0.00 91 1001.5
20260502182404 52 282 3.5 6.1 0.00 0.00 0.00 91 1001.6
20260502182325 52 283 3.5 6.1 0.00 0.00 0.00 91 1001.7
20260502182204 52 283 3.5 6.1 0.00 0.00 0.00 91 1001.5
20260502182104 52 283 3.5 6.1 0.00 0.00 0.00 91 1001.5
20260502182004 52 282 2.6 6.1 0.00 0.00 0.00 90 1001.6
20260502181905 52 282 2.6 6.1 0.00 0.00 0.00 90 1001.4
20260502181804 52 282 2.6 5.2 0.00 0.00 0.00 90 1001.5
20260502181726 52 283 2.6 5.2 0.00 0.00 0.00 90 1001.4
20260502181625 52 283 2.6 5.2 0.00 0.00 0.00 90 1001.6
20260502181504 52 285 2.6 5.2 0.00 0.00 0.00 90 1001.5
20260502181404 52 285 2.6 5.2 0.00 0.00 0.00 90 1001.6
20260502181304 52 285 2.6 5.2 0.00 0.00 0.00 90 1001.6
20260502181204 52 285 2.6 5.2 0.00 0.00 0.00 90 1001.5
20260502181104 52 284 2.6 5.2 0.00 0.00 0.00 90 1001.6
20260502181005 52 284 2.6 5.2 0.00 0.00 0.00 90 1001.7
20260502180904 52 284 2.6 5.2 0.00 0.00 0.00 90 1001.8
20260502180827 52 285 2.6 5.2 0.00 0.00 0.00 90 1001.4
20260502180704 52 285 2.6 5.2 0.00 0.00 0.00 89 1001.9
20260502180625 52 285 2.6 5.2 0.00 0.00 0.00 89 1001.7
20260502180504 52 285 2.6 5.2 0.00 0.00 0.00 89 1001.7
20260502180404 52 284 2.6 5.2 0.00 0.00 0.00 89 1001.6
20260502180304 52 285 2.6 5.2 0.00 0.00 0.00 89 1001.6
20260502180205 52 286 2.6 5.2 0.00 0.00 0.00 89 1001.6
20260502180104 52 286 2.6 5.2 0.00 0.00 0.00 89 1001.6
20260502170504 53 323 0.9 3.5 0.00 0.00 0.00 89 1001.5
20260502170404 53 332 0.9 3.5 0.00 0.00 0.00 89 1001.5
20260502170325 53 346 0.9 3.5 0.00 0.00 0.00 89 1001.7
20260502170204 53 356 0.9 2.6 0.00 0.00 0.00 89 1001.6
20260502170104 53 334 0.9 2.6 0.00 0.00 0.00 89 1001.6
20260502164304 54 293 1.7 5.2 0.00 0.00 0.00 88 1001.7
20260502164204 54 286 1.7 5.2 0.00 0.00 0.00 88 1001.6
20260502164104 54 284 1.7 5.2 0.00 0.00 0.00 87 1001.9
20260502164004 54 282 1.7 5.2 0.00 0.00 0.00 87 1001.9
20260502163905 54 283 0.9 5.2 0.00 0.00 0.00 87 1001.9
20260502163804 54 284 0.9 2.6 0.00 0.00 0.00 87 1001.6
20260502163705 54 285 0.9 3.5 0.00 0.00 0.00 87 1001.8
20260502163604 54 278 0.9 3.5 0.00 0.00 0.00 87 1001.9
20260502163504 54 273 0.9 3.5 0.00 0.00 0.00 87 1002.0
20260502163404 55 273 1.7 5.2 0.00 0.00 0.00 87 1002.0
20260502163304 55 273 1.7 5.2 0.00 0.00 0.00 87 1001.7
20260502163225 55 276 1.7 5.2 0.00 0.00 0.00 87 1002.0
20260502163104 55 277 1.7 5.2 0.00 0.00 0.00 87 1002.0
20260502163026 55 279 1.7 5.2 0.00 0.00 0.00 87 1001.8
20260502162904 54 277 1.7 5.2 0.00 0.00 0.00 86 1001.7
20260502162804 54 277 1.7 5.2 0.00 0.00 0.00 87 1001.9
20260502162704 54 278 1.7 5.2 0.00 0.00 0.00 87 1001.7
20260502162604 54 278 1.7 5.2 0.00 0.00 0.00 87 1001.7
20260502162504 54 277 1.7 5.2 0.00 0.00 0.00 87 1001.8
20260502162405 55 276 1.7 5.2 0.00 0.00 0.00 87 1002.0
20260502162305 55 275 1.7 5.2 0.00 0.00 0.00 87 1001.9
20260502162225 54 271 1.7 3.5 0.00 0.00 0.00 87 1002.0
20260502162125 54 268 1.7 3.5 0.00 0.00 0.00 87 1002.2
20260502162004 54 269 1.7 3.5 0.00 0.00 0.00 87 1002.0
20260502161904 54 268 1.7 3.5 0.00 0.00 0.00 87 1002.0
20260502161825 54 265 1.7 3.5 0.00 0.00 0.00 87 1002.1
20260502161725 54 260 1.7 3.5 0.00 0.00 0.00 87 1001.9
20260502161604 54 257 1.7 3.5 0.00 0.00 0.00 87 1002.0
20260502161525 55 256 0.9 3.5 0.00 0.00 0.00 87 1002.2
20260502161404 55 253 0.9 3.5 0.00 0.00 0.00 87 1002.1
20260502161304 55 254 0.9 3.5 0.00 0.00 0.00 88 1002.1
20260502161204 55 259 0.9 3.5 0.00 0.00 0.00 88 1002.2
20260502161104 55 263 0.9 3.5 0.00 0.00 0.00 88 1002.2
20260502161004 55 270 0.9 3.5 0.00 0.00 0.00 87 1002.1
20260502160925 55 271 0.9 3.5 0.00 0.00 0.00 87 1001.9
20260502160804 55 277 1.7 3.5 0.00 0.00 0.00 87 1002.0
20260502160704 55 281 1.7 5.2 0.00 0.00 0.00 87 1002.1
20260502160604 55 284 1.7 5.2 0.00 0.00 0.00 87 1002.2
20260502160525 55 286 1.7 5.2 0.00 0.00 0.00 87 1002.3
20260502160404 55 287 1.7 5.2 0.00 0.00 0.00 87 1001.9
20260502160304 55 291 1.7 5.2 0.00 0.00 0.00 87 1002.2
20260502160204 55 290 2.6 5.2 0.00 0.00 0.00 86 1002.0
20260502160105 55 289 2.6 5.2 0.00 0.00 0.00 86 1002.1
20260502152305 56 285 4.3 7.8 0.00 0.00 0.00 82 1002.5
20260502152225 56 284 3.5 7.8 0.00 0.00 0.00 82 1002.7
20260502152104 56 280 3.5 7.8 0.00 0.00 0.00 83 1002.7
20260502152004 57 280 3.5 7.0 0.00 0.00 0.00 83 1002.6
20260502151904 56 278 3.5 7.0 0.00 0.00 0.00 83 1002.6
20260502151804 56 277 3.5 7.0 0.00 0.00 0.00 84 1002.4
20260502151704 56 278 3.5 7.0 0.00 0.00 0.00 85 1002.6
20260502151604 56 278 3.5 7.0 0.00 0.00 0.00 84 1002.7
20260502151504 56 276 3.5 7.8 0.00 0.00 0.00 84 1002.7
20260502151425 56 274 3.5 7.8 0.00 0.00 0.00 84 1002.6
20260502151325 56 272 3.5 7.8 0.00 0.00 0.00 84 1002.7
20260502151204 55 276 3.5 8.7 0.00 0.00 0.00 86 1002.7
20260502151104 55 276 4.3 8.7 0.00 0.00 0.00 86 1002.8
20260502151025 55 274 4.3 8.7 0.00 0.00 0.00 86 1002.7
20260502150904 55 276 4.3 8.7 0.00 0.00 0.00 86 1002.7
20260502150804 55 276 4.3 8.7 0.00 0.00 0.00 86 1002.8
20260502150704 55 276 4.3 8.7 0.00 0.00 0.00 87 1002.8
20260502150604 55 276 4.3 8.7 0.00 0.00 0.00 87 1002.8
20260502150504 55 277 4.3 8.7 0.00 0.00 0.00 88 1002.9
20260502150425 55 278 4.3 8.7 0.00 0.00 0.00 88 1003.3
20260502150325 55 276 4.3 8.7 0.00 0.00 0.00 88 1002.9
20260502150225 55 276 4.3 8.7 0.00 0.00 0.00 89 1002.9
20260502150104 54 275 4.3 8.7 0.00 0.00 0.00 89 1003.0
20260502140104 54 268 6.1 12.2 0.00 0.00 0.00 88 1003.3
20260502130704 55 252 6.1 11.3 0.00 0.00 0.00 88 1003.9
20260502130604 55 256 6.1 11.3 0.00 0.00 0.00 87 1003.9
20260502130504 55 257 6.1 11.3 0.00 0.00 0.00 87 1003.9
20260502130404 55 261 6.1 11.3 0.00 0.00 0.00 87 1003.9
20260502130325 55 264 6.1 11.3 0.00 0.00 0.00 87 1003.9
20260502130204 55 267 6.1 9.6 0.00 0.00 0.00 87 1003.9
20260502130104 55 265 6.1 9.6 0.00 0.00 0.00 87 1003.8
20260502123804 55 234 4.3 9.6 0.00 0.00 0.00 87 1003.7
20260502123704 55 230 4.3 9.6 0.00 0.00 0.00 87 1003.8
20260502123625 55 227 4.3 9.6 0.00 0.00 0.00 87 1004.1
20260502123525 55 230 5.2 9.6 0.00 0.00 0.00 87 1003.8
20260502123404 55 230 4.3 9.6 0.00 0.00 0.00 87 1003.7
20260502123304 55 230 5.2 9.6 0.00 0.00 0.00 86 1003.8
20260502123204 55 231 4.3 9.6 0.00 0.00 0.00 87 1003.9
20260502123104 55 230 4.3 7.8 0.00 0.00 0.00 87 1003.9
20260502123004 55 234 4.3 7.8 0.00 0.00 0.00 88 1004.0
20260502122904 55 238 4.3 7.8 0.00 0.00 0.00 88 1003.9
20260502122804 55 240 4.3 7.8 0.00 0.00 0.00 89 1003.8
20260502122704 54 237 4.3 7.0 0.00 0.00 0.00 89 1004.1
20260502122604 55 242 4.3 7.0 0.00 0.00 0.00 88 1003.8
20260502122525 55 243 4.3 7.0 0.00 0.00 0.00 89 1003.9
20260502122404 55 243 4.3 7.0 0.00 0.00 0.00 88 1003.9
20260502122306 55 243 4.3 7.0 0.00 0.00 0.00 89 1003.8
20260502122204 55 244 4.3 7.0 0.00 0.00 0.00 89 1003.6
20260502122104 55 242 4.3 9.6 0.00 0.00 0.00 89 1003.7
20260502122004 55 240 4.3 9.6 0.00 0.00 0.00 89 1003.8
20260502121904 55 237 4.3 9.6 0.00 0.00 0.00 89 1004.0
20260502121804 55 239 4.3 9.6 0.00 0.00 0.00 89 1003.9
20260502121725 55 240 4.3 9.6 0.00 0.00 0.00 89 1003.8
20260502121604 54 240 5.2 9.6 0.00 0.00 0.00 89 1003.8
20260502121504 54 241 5.2 9.6 0.00 0.00 0.00 89 1003.8
20260502121404 55 241 5.2 9.6 0.00 0.00 0.00 89 1004.0
20260502121304 55 240 5.2 9.6 0.00 0.00 0.00 89 1003.8
20260502121204 55 239 6.1 9.6 0.00 0.00 0.00 89 1004.1
20260502121104 55 237 5.2 9.6 0.00 0.00 0.00 90 1004.0
20260502121005 55 237 5.2 9.6 0.00 0.00 0.00 90 1003.9
20260502120904 54 238 5.2 9.6 0.00 0.00 0.00 91 1003.9
20260502120804 54 237 5.2 9.6 0.00 0.00 0.00 91 1004.0
20260502120704 54 240 5.2 9.6 0.00 0.00 0.00 89 1004.1
20260502120604 54 242 5.2 9.6 0.00 0.00 0.00 90 1004.1
20260502120504 55 242 5.2 9.6 0.00 0.00 0.00 89 1004.0
20260502120425 55 242 5.2 9.6 0.00 0.00 0.00 89 1004.2
20260502120304 55 241 5.2 9.6 0.00 0.00 0.00 89 1004.3
20260502120204 55 241 5.2 9.6 0.00 0.00 0.00 90 1004.1
20260502120104 55 242 5.2 8.7 0.00 0.00 0.00 90 1004.1
20260502115925 55 238 5.2 8.7 0.00 0.00 0.00 91 1004.2
20260502115804 55 236 5.2 11.3 0.00 0.00 0.00 90 1004.2
20260502115704 55 237 5.2 11.3 0.00 0.00 0.00 90 1004.2
20260502115604 55 236 6.1 11.3 0.00 0.00 0.00 91 1004.2
20260502115504 55 234 5.2 11.3 0.00 0.00 0.00 90 1004.3
20260502115404 55 233 5.2 11.3 0.00 0.00 0.00 91 1004.2
20260502115306 54 234 5.2 11.3 0.00 0.00 0.00 91 1004.1
20260502115204 54 234 6.1 11.3 0.00 0.00 0.00 90 1004.1
20260502115104 54 234 6.1 11.3 0.00 0.00 0.00 91 1003.9
20260502115004 54 235 6.1 11.3 0.00 0.00 0.00 91 1004.0
20260502114904 54 236 6.1 11.3 0.00 0.00 0.00 91 1004.0
20260502114825 54 236 6.1 11.3 0.00 0.00 0.00 91 1004.2
20260502114704 54 237 6.1 9.6 0.00 0.00 0.00 92 1003.9
20260502114604 54 238 6.1 13.0 0.00 0.00 0.00 92 1004.1
20260502114504 54 240 7.0 13.0 0.00 0.00 0.00 92 1004.0
20260502114404 54 241 7.0 13.0 0.00 0.00 0.00 92 1003.9
20260502114304 54 241 7.0 13.0 0.00 0.00 0.00 92 1004.3
20260502114225 54 243 7.0 13.0 0.00 0.00 0.00 92 1004.3
20260502114104 53 245 7.0 13.0 0.00 0.00 0.00 92 1004.1
20260502114004 53 246 7.0 13.0 0.00 0.00 0.00 92 1004.2
20260502113904 53 250 6.1 13.0 0.00 0.00 0.00 92 1004.2
20260502113804 53 253 6.1 13.0 0.00 0.00 0.00 92 1004.2
20260502113704 53 255 6.1 13.0 0.00 0.00 0.00 92 1004.0
20260502113604 53 256 6.1 13.0 0.00 0.00 0.00 93 1004.2
20260502113504 53 258 5.2 13.0 0.00 0.00 0.00 93 1004.2
20260502113404 54 260 5.2 8.7 0.00 0.00 0.00 93 1004.3
20260502113304 54 262 5.2 8.7 0.00 0.00 0.00 93 1004.1
20260502113204 54 260 5.2 8.7 0.00 0.00 0.00 93 1004.1
20260502113104 53 263 5.2 9.6 0.00 0.00 0.00 93 1004.1
20260502113025 53 264 5.2 9.6 0.00 0.00 0.00 93 1004.2
20260502112904 53 266 5.2 9.6 0.00 0.00 0.00 93 1004.2
20260502112804 53 265 5.2 9.6 0.00 0.00 0.00 93 1004.2
20260502112725 53 266 5.2 9.6 0.00 0.00 0.00 93 1004.2
20260502112604 53 266 5.2 9.6 0.00 0.00 0.00 93 1004.2
20260502112504 53 264 5.2 9.6 0.00 0.00 0.00 93 1004.2
20260502112404 53 264 5.2 9.6 0.00 0.00 0.00 93 1004.1
20260502112325 53 262 5.2 12.2 0.00 0.00 0.00 93 1004.3
20260502112204 53 263 6.1 12.2 0.00 0.00 0.00 93 1004.2
20260502112104 53 264 6.1 12.2 0.00 0.00 0.00 93 1004.1
20260502112004 53 263 6.1 12.2 0.00 0.00 0.00 93 1004.2
20260502111904 53 263 6.1 12.2 0.00 0.00 0.00 93 1004.1
20260502111804 53 263 6.1 12.2 0.00 0.00 0.00 94 1004.2
20260502111704 53 265 6.1 12.2 0.00 0.00 0.00 94 1004.1
20260502111604 52 263 6.1 12.2 0.00 0.00 0.00 94 1004.1
20260502111504 52 263 6.1 12.2 0.00 0.00 0.00 94 1004.3
20260502111404 52 263 6.1 12.2 0.00 0.00 0.00 94 1004.3
20260502111304 52 263 6.1 12.2 0.00 0.00 0.00 95 1004.3
20260502111204 52 263 6.1 11.3 0.00 0.00 0.00 95 1004.3
20260502111125 52 263 5.2 11.3 0.00 0.00 0.00 95 1004.2
20260502111004 52 258 6.1 12.2 0.00 0.00 0.00 96 1004.2
20260502110904 52 259 6.1 12.2 0.00 0.00 0.00 97 1004.3
20260502110804 52 260 6.1 12.2 0.00 0.00 0.00 97 1004.1
20260502110704 52 260 6.1 12.2 0.00 0.00 0.00 98 1004.4
20260502110625 52 259 6.1 12.2 0.00 0.00 0.00 98 1004.1
20260502110525 52 262 6.1 12.2 0.00 0.00 0.00 99 1004.0
20260502110425 52 262 6.1 12.2 0.00 0.00 0.00 99 1004.2
20260502110304 52 260 6.1 12.2 0.00 0.00 0.00 99 1004.2
20260502110204 52 259 6.1 12.2 0.00 0.00 0.00 99 1004.3
20260502110104 52 256 6.1 12.2 0.00 0.00 0.00 99 1004.3
20260502110004 52 257 6.1 12.2 0.00 0.00 0.00 99 1004.4
20260502105904 52 257 6.1 12.2 0.00 0.00 0.00 99 1004.3
20260502105804 52 256 6.1 11.3 0.00 0.00 0.00 99 1004.1
20260502105704 52 253 6.1 11.3 0.00 0.00 0.00 99 1004.3
20260502105604 52 249 6.1 11.3 0.00 0.00 0.00 99 1004.3
20260502105504 52 248 6.1 11.3 0.00 0.00 0.00 99 1004.2
20260502105404 52 247 5.2 11.3 0.00 0.00 0.00 99 1004.3
20260502105325 51 248 5.2 11.3 0.00 0.00 0.00 99 1004.3
20260502105225 51 250 5.2 11.3 0.00 0.00 0.00 99 1004.2
20260502105104 51 251 6.1 11.3 0.00 0.00 0.00 99 1004.5
20260502105004 51 251 5.2 11.3 0.00 0.00 0.00 99 1004.2
20260502104904 51 252 5.2 11.3 0.00 0.00 0.00 99 1004.2
20260502104804 51 254 5.2 11.3 0.00 0.00 0.00 99 1004.7
20260502104704 51 256 5.2 11.3 0.00 0.00 0.00 99 1004.2
20260502104625 51 256 4.3 8.7 0.00 0.00 0.00 99 1004.2
20260502104504 51 257 4.3 8.7 0.00 0.00 0.00 99 1004.4
20260502104404 51 259 4.3 8.7 0.00 0.00 0.00 99 1004.4
20260502104304 51 258 4.3 8.7 0.00 0.00 0.00 99 1004.4
20260502104204 51 255 5.2 8.7 0.00 0.00 0.00 99 1004.4
20260502104125 51 258 4.3 8.7 0.00 0.00 0.00 99 1004.4
20260502104004 51 257 4.3 7.8 0.00 0.00 0.00 99 1004.6
20260502103904 51 257 4.3 7.8 0.00 0.00 0.00 99 1004.4
20260502103804 50 252 4.3 7.8 0.00 0.00 0.00 99 1004.3
20260502103725 50 251 4.3 7.8 0.00 0.00 0.00 99 1004.5
20260502103604 50 254 4.3 7.8 0.00 0.00 0.00 99 1004.5
20260502103504 50 254 4.3 7.8 0.00 0.00 0.00 99 1004.4
20260502103404 50 253 4.3 7.8 0.00 0.00 0.00 99 1004.6
20260502103304 50 251 4.3 7.8 0.00 0.00 0.00 99 1004.3
20260502103225 50 252 4.3 7.8 0.00 0.00 0.00 99 1004.4
20260502103104 50 250 4.3 11.3 0.00 0.00 0.00 99 1004.7
20260502103004 50 253 4.3 11.3 0.00 0.00 0.00 99 1004.5
20260502102904 50 255 5.2 11.3 0.00 0.00 0.00 99 1004.4
20260502102804 50 256 5.2 11.3 0.00 0.00 0.00 99 1004.5
20260502102725 50 256 5.2 11.3 0.00 0.00 0.00 99 1004.6
20260502102625 50 255 5.2 11.3 0.00 0.00 0.00 99 1004.4
20260502102525 50 254 5.2 11.3 0.00 0.00 0.00 99 1004.5
20260502102404 50 255 5.2 11.3 0.00 0.00 0.00 99 1004.6
20260502102306 50 258 5.2 11.3 0.00 0.00 0.00 99 1004.6
20260502102225 50 255 5.2 11.3 0.00 0.00 0.00 99 1004.8
20260502102125 50 256 5.2 11.3 0.00 0.00 0.00 99 1004.5
20260502102004 50 251 5.2 11.3 0.00 0.00 0.00 99 1004.7
20260502101825 50 248 5.2 11.3 0.00 0.00 0.00 99 1004.7
20260502101625 50 247 5.2 11.3 0.00 0.00 0.00 99 1004.5
20260502101504 50 247 6.1 11.3 0.00 0.00 0.00 99 1004.6
20260502101425 49 246 6.1 11.3 0.00 0.00 0.00 99 1004.6
20260502101304 50 245 6.1 11.3 0.00 0.00 0.00 99 1004.5
20260502101204 50 245 6.1 11.3 0.00 0.00 0.00 99 1004.4
20260502101125 50 243 6.1 11.3 0.00 0.00 0.00 99 1004.6
20260502101004 49 244 6.1 11.3 0.00 0.00 0.00 99 1004.8
20260502100904 49 245 7.0 11.3 0.00 0.00 0.00 99 1004.6
20260502100804 49 245 6.1 11.3 0.00 0.00 0.00 99 1004.5
20260502100704 49 247 6.1 11.3 0.00 0.00 0.00 99 1004.5
20260502100604 49 247 6.1 11.3 0.00 0.00 0.00 99 1004.4
20260502100504 49 248 6.1 11.3 0.00 0.00 0.00 99 1004.7
20260502100404 49 246 6.1 12.2 0.00 0.00 0.00 99 1004.7
20260502100304 49 246 6.1 12.2 0.00 0.00 0.00 99 1004.8
20260502100225 49 247 6.1 12.2 0.00 0.00 0.00 99 1004.7
20260502100104 50 251 6.1 12.2 0.00 0.00 0.00 99 1004.5
20260502091504 49 256 4.3 7.8 0.00 0.00 0.00 99 1004.6
20260502091404 49 256 5.2 7.8 0.00 0.00 0.00 99 1004.7
20260502091304 49 256 5.2 8.7 0.00 0.00 0.00 99 1004.8
20260502091204 49 254 5.2 8.7 0.00 0.00 0.00 99 1004.6
20260502091125 49 253 5.2 8.7 0.00 0.00 0.00 99 1004.6
20260502091004 49 250 5.2 8.7 0.00 0.00 0.00 99 1004.4
20260502090903 49 250 5.2 8.7 0.00 0.00 0.00 99 1004.8
20260502090804 49 248 5.2 8.7 0.00 0.00 0.00 99 1004.5
20260502090704 49 244 5.2 8.7 0.00 0.00 0.00 99 1004.5
20260502090604 49 243 5.2 8.7 0.00 0.00 0.00 99 1004.6
20260502090504 49 241 5.2 8.7 0.00 0.00 0.00 99 1004.7
20260502090404 49 242 5.2 8.7 0.00 0.00 0.00 99 1004.5
20260502090304 49 243 5.2 8.7 0.00 0.00 0.00 99 1004.5
20260502090204 49 242 5.2 8.7 0.00 0.00 0.00 99 1004.6
20260502090104 49 243 5.2 8.7 0.00 0.00 0.00 99 1004.5
20260502080104 49 244 6.1 11.3 0.00 0.00 0.00 99 1004.3
20260502071504 49 244 4.3 8.7 0.00 0.00 0.00 99 1004.3
20260502071404 49 247 4.3 8.7 0.00 0.00 0.00 99 1004.5
20260502071304 49 247 5.2 8.7 0.00 0.00 0.00 99 1004.1
20260502071204 49 246 5.2 8.7 0.00 0.00 0.00 99 1004.3
20260502071104 49 245 5.2 8.7 0.00 0.00 0.00 99 1004.2
20260502071025 49 245 5.2 8.7 0.00 0.00 0.00 99 1004.3
20260502070904 49 245 5.2 8.7 0.00 0.00 0.00 99 1004.2
20260502070804 49 246 5.2 8.7 0.00 0.00 0.00 99 1004.3
20260502070725 49 246 5.2 8.7 0.00 0.00 0.00 99 1004.4
20260502070625 49 245 5.2 8.7 0.00 0.00 0.00 99 1004.1
20260502070504 49 247 5.2 8.7 0.00 0.00 0.00 99 1004.4
20260502070404 49 246 5.2 8.7 0.00 0.00 0.00 99 1004.1
20260502070304 49 247 5.2 8.7 0.00 0.00 0.00 99 1004.2
20260502070204 49 248 5.2 8.7 0.00 0.00 0.00 99 1004.0
20260502070104 49 248 5.2 8.7 0.00 0.00 0.00 99 1004.3
20260502070004 49 250 5.2 8.7 0.00 0.00 0.00 99 1004.2
20260502065903 49 251 5.2 8.7 0.00 0.00 0.00 99 1004.2
20260502065825 49 250 5.2 8.7 0.00 0.00 0.00 99 1004.1
20260502065703 49 246 5.2 8.7 0.00 0.00 0.00 99 1004.3
20260502065604 49 250 5.2 8.7 0.00 0.00 0.00 99 1004.2
20260502065503 49 248 5.2 8.7 0.00 0.00 0.00 99 1004.1
20260502065404 49 246 5.2 8.7 0.00 0.00 0.00 99 1004.1
20260502065306 49 247 5.2 8.7 0.00 0.00 0.00 99 1004.2
20260502065204 49 246 5.2 8.7 0.00 0.00 0.00 99 1004.2
20260502065104 49 248 5.2 8.7 0.00 0.00 0.00 99 1004.1
20260502065004 49 247 5.2 8.7 0.00 0.00 0.00 99 1004.1
20260502064904 49 245 5.2 8.7 0.00 0.00 0.00 99 1004.2
20260502064825 49 246 5.2 8.7 0.00 0.00 0.00 99 1004.2
20260502064704 49 249 5.2 8.7 0.00 0.00 0.00 99 1004.2
20260502064603 49 247 5.2 8.7 0.00 0.00 0.00 99 1004.2
20260502064525 49 247 5.2 8.7 0.00 0.00 0.00 99 1004.1
20260502064404 49 248 5.2 8.7 0.00 0.00 0.00 99 1004.1
20260502064304 49 250 5.2 8.7 0.00 0.00 0.00 99 1004.1
20260502064204 49 250 5.2 8.7 0.00 0.00 0.00 99 1004.2
20260502064104 49 248 5.2 8.7 0.00 0.00 0.00 99 1004.2
20260502064003 49 247 5.2 8.7 0.00 0.00 0.00 99 1004.2
20260502063904 49 249 5.2 8.7 0.00 0.00 0.00 99 1004.1
20260502063803 49 251 5.2 8.7 0.00 0.00 0.00 99 1004.1
20260502063704 49 251 5.2 8.7 0.00 0.00 0.00 99 1004.1
20260502063604 49 251 5.2 8.7 0.00 0.00 0.00 99 1004.2
20260502063504 49 249 5.2 8.7 0.00 0.00 0.00 99 1004.3
20260502063403 49 249 5.2 8.7 0.00 0.00 0.00 99 1004.2
20260502063304 49 248 4.3 8.7 0.00 0.00 0.00 99 1004.0
20260502063204 49 247 5.2 7.8 0.00 0.00 0.00 99 1004.0
20260502063104 49 248 5.2 7.8 0.00 0.00 0.00 99 1004.1
20260502063024 49 248 5.2 7.8 0.00 0.00 0.00 99 1004.3
20260502062925 49 247 4.3 7.8 0.00 0.00 0.00 99 1004.2
20260502062803 49 246 4.3 7.8 0.00 0.00 0.00 99 1004.1
20260502062704 49 245 4.3 7.8 0.00 0.00 0.00 99 1004.3
20260502062604 49 245 4.3 7.8 0.00 0.00 0.00 99 1004.2
20260502062503 49 244 4.3 7.8 0.00 0.00 0.00 99 1004.2
20260502062404 49 243 4.3 7.8 0.00 0.00 0.00 99 1004.3
20260502062306 49 242 4.3 7.8 0.00 0.00 0.00 99 1004.2
20260502062204 49 243 4.3 7.8 0.00 0.00 0.00 99 1004.2
20260502062103 49 242 4.3 7.8 0.00 0.00 0.00 99 1004.1
20260502062004 49 244 4.3 8.7 0.00 0.00 0.00 99 1004.1
20260502061904 49 245 4.3 8.7 0.00 0.00 0.00 99 1004.2
20260502061804 49 244 4.3 8.7 0.00 0.00 0.00 99 1004.0
20260502061724 49 244 5.2 8.7 0.00 0.00 0.00 99 1004.4
20260502061604 49 244 5.2 9.6 0.00 0.00 0.00 99 1004.2
20260502061503 49 246 5.2 9.6 0.00 0.00 0.00 99 1004.1
20260502061404 49 247 5.2 9.6 0.00 0.00 0.00 99 1004.2
20260502061225 49 247 5.2 9.6 0.00 0.00 0.00 99 1003.9
20260502061103 49 250 6.1 9.6 0.00 0.00 0.00 99 1004.0
20260502061004 49 249 6.1 9.6 0.00 0.00 0.00 99 1004.1
20260502060904 49 248 6.1 9.6 0.00 0.00 0.00 99 1004.2
20260502060804 49 249 6.1 9.6 0.00 0.00 0.00 99 1004.5
20260502060704 49 248 6.1 9.6 0.00 0.00 0.00 99 1004.0
20260502060603 49 248 6.1 9.6 0.00 0.00 0.00 99 1004.2
20260502060525 49 248 6.1 9.6 0.00 0.00 0.00 99 1004.2
20260502060404 49 245 6.1 9.6 0.00 0.00 0.00 99 1004.2
20260502060304 49 244 6.1 9.6 0.00 0.00 0.00 99 1004.2
20260502060224 49 243 6.1 9.6 0.00 0.00 0.00 99 1004.2
20260502060104 49 239 5.2 9.6 0.00 0.00 0.00 99 1004.2
20260502060004 49 242 5.2 9.6 0.00 0.00 0.00 99 1004.0
20260502055925 49 241 5.2 9.6 0.00 0.00 0.00 99 1003.9
20260502055804 49 241 5.2 7.8 0.00 0.00 0.00 99 1004.2
20260502055725 49 241 5.2 7.8 0.00 0.00 0.00 99 1004.3
20260502055603 49 239 4.3 7.8 0.00 0.00 0.00 99 1004.1
20260502055525 49 238 4.3 7.8 0.00 0.00 0.00 99 1004.2
20260502055403 49 238 4.3 7.8 0.00 0.00 0.00 99 1004.1
20260502055306 49 240 4.3 9.6 0.00 0.00 0.00 99 1004.1
20260502055203 49 242 4.3 9.6 0.00 0.00 0.00 99 1004.2
20260502055104 49 243 4.3 9.6 0.00 0.00 0.00 99 1004.2
20260502055004 49 241 5.2 9.6 0.00 0.00 0.00 99 1004.2
20260502054904 49 241 4.3 9.6 0.00 0.00 0.00 99 1004.3
20260502054825 49 239 4.3 9.6 0.00 0.00 0.00 99 1004.1
20260502054704 49 241 4.3 9.6 0.00 0.00 0.00 99 1004.1
20260502054604 49 244 4.3 9.6 0.00 0.00 0.00 99 1004.2
20260502054524 49 246 4.3 9.6 0.00 0.00 0.00 99 1004.2
20260502054404 49 247 4.3 9.6 0.00 0.00 0.00 99 1004.3
20260502054303 49 245 4.3 9.6 0.00 0.00 0.00 99 1004.4
20260502054204 49 247 4.3 9.6 0.00 0.00 0.00 99 1004.3
20260502054103 49 246 4.3 7.0 0.00 0.00 0.00 99 1004.0
20260502054004 49 245 4.3 7.0 0.00 0.00 0.00 99 1004.3
20260502053903 49 247 4.3 7.8 0.00 0.00 0.00 99 1004.3
20260502053825 49 248 4.3 7.8 0.00 0.00 0.00 99 1004.0
20260502053703 49 246 4.3 8.7 0.00 0.00 0.00 99 1004.2
20260502053604 49 244 5.2 8.7 0.00 0.00 0.00 99 1004.2
20260502053504 49 242 5.2 8.7 0.00 0.00 0.00 99 1004.2
20260502053405 49 243 5.2 8.7 0.00 0.00 0.00 99 1004.4
20260502053303 49 243 5.2 8.7 0.00 0.00 0.00 99 1004.1
20260502053204 49 242 5.2 8.7 0.00 0.00 0.00 99 1004.1
20260502053104 49 241 5.2 9.6 0.00 0.00 0.00 99 1004.1
20260502053004 49 242 5.2 9.6 0.00 0.00 0.00 99 1004.2
20260502052904 49 240 6.1 9.6 0.00 0.00 0.00 99 1003.9
20260502052824 49 239 6.1 9.6 0.00 0.00 0.00 99 1004.1
20260502052703 49 238 6.1 9.6 0.00 0.00 0.00 99 1004.3
20260502052603 49 238 6.1 9.6 0.00 0.00 0.00 99 1004.1
20260502052525 49 240 6.1 9.6 0.00 0.00 0.00 99 1004.3
20260502052403 49 240 6.1 9.6 0.00 0.00 0.00 99 1004.2
20260502052306 49 242 6.1 9.6 0.00 0.00 0.00 99 1004.1
20260502052204 49 244 6.1 9.6 0.00 0.00 0.00 99 1004.2
20260502052125 49 245 6.1 9.6 0.00 0.00 0.00 99 1004.3
20260502052024 49 248 6.1 9.6 0.00 0.00 0.00 99 1004.4
20260502051904 49 248 6.1 9.6 0.00 0.00 0.00 99 1004.2
20260502051803 49 252 6.1 9.6 0.00 0.00 0.00 99 1004.3
20260502051704 49 254 6.1 9.6 0.00 0.00 0.00 99 1004.4
20260502051603 49 251 6.1 12.2 0.00 0.00 0.00 99 1004.3
20260502051504 49 248 6.1 12.2 0.00 0.00 0.00 99 1004.3
20260502051403 49 250 7.0 12.2 0.00 0.00 0.00 99 1004.3
20260502051304 49 250 7.0 12.2 0.00 0.00 0.00 99 1004.3
20260502051203 49 247 7.0 12.2 0.00 0.00 0.00 99 1004.4
20260502051104 49 244 6.1 12.2 0.00 0.00 0.00 99 1004.2
20260502051024 49 243 6.1 12.2 0.00 0.00 0.00 99 1004.3
20260502050904 49 244 6.1 12.2 0.00 0.00 0.00 99 1004.3
20260502050804 49 242 6.1 12.2 0.00 0.00 0.00 99 1004.3
20260502050725 49 242 6.1 12.2 0.00 0.00 0.00 99 1004.3
20260502050604 49 246 6.1 12.2 0.00 0.00 0.00 99 1004.2
20260502050504 49 249 6.1 12.2 0.00 0.00 0.00 99 1004.0
20260502050403 49 247 6.1 11.3 0.00 0.00 0.00 99 1004.5
20260502050304 49 247 6.1 9.6 0.00 0.00 0.00 99 1004.4
20260502050203 49 249 6.1 9.6 0.00 0.00 0.00 99 1004.3
20260502050104 49 250 6.1 9.6 0.00 0.00 0.00 99 1004.3
20260502050004 49 251 5.2 9.6 0.00 0.00 0.00 99 1004.1
20260502045904 49 251 5.2 9.6 0.00 0.00 0.00 99 1004.1
20260502045825 49 253 5.2 9.6 0.00 0.00 0.00 99 1004.2
20260502045703 49 254 5.2 9.6 0.00 0.00 0.00 99 1004.2
20260502045603 49 255 5.2 9.6 0.00 0.00 0.00 99 1004.2
20260502045503 49 255 5.2 9.6 0.00 0.00 0.00 99 1004.0
20260502045306 49 255 5.2 9.6 0.00 0.00 0.00 99 1004.0
20260502045204 49 255 5.2 9.6 0.00 0.00 0.00 99 1004.1
20260502045103 49 254 5.2 9.6 0.00 0.00 0.00 99 1004.2
20260502045004 49 254 5.2 9.6 0.00 0.00 0.00 99 1003.9
20260502044903 49 252 5.2 9.6 0.00 0.00 0.00 99 1004.0
20260502044804 49 252 6.1 9.6 0.00 0.00 0.00 99 1003.8
20260502044703 49 250 6.1 9.6 0.00 0.00 0.00 99 1004.1
20260502044604 49 249 6.1 11.3 0.00 0.00 0.00 99 1004.2
20260502044504 49 247 6.1 11.3 0.00 0.00 0.00 99 1004.0
20260502044404 49 246 6.1 11.3 0.00 0.00 0.00 99 1004.0
20260502044303 49 246 6.1 11.3 0.00 0.00 0.00 99 1004.1
20260502044225 49 243 6.1 11.3 0.00 0.00 0.00 99 1004.1
20260502044103 49 245 7.0 12.2 0.00 0.00 0.00 99 1004.1
20260502044003 49 244 7.0 12.2 0.00 0.00 0.00 99 1003.9
20260502043904 49 242 7.0 12.2 0.00 0.00 0.00 99 1004.1
20260502043804 49 241 7.0 12.2 0.00 0.00 0.00 99 1004.1
20260502043704 49 240 7.0 12.2 0.00 0.00 0.00 99 1004.1
20260502043625 49 241 7.0 12.2 0.00 0.00 0.00 99 1003.8
20260502043503 49 240 7.0 12.2 0.00 0.00 0.00 99 1004.2
20260502043404 49 239 7.0 12.2 0.00 0.00 0.00 99 1004.2
20260502043304 49 238 7.0 12.2 0.00 0.00 0.00 99 1004.2
20260502043203 49 242 7.0 12.2 0.00 0.00 0.00 99 1004.1
20260502043104 49 240 7.0 12.2 0.00 0.00 0.00 99 1004.0
20260502043003 49 241 7.0 11.3 0.00 0.00 0.00 99 1004.1
20260502042904 49 242 7.0 11.3 0.00 0.00 0.00 99 1004.0
20260502042803 49 243 7.0 11.3 0.00 0.00 0.00 99 1003.9
20260502042704 49 242 7.0 11.3 0.00 0.00 0.00 99 1004.2
20260502042604 49 243 7.0 11.3 0.00 0.00 0.00 99 1004.2
20260502042504 49 243 7.0 11.3 0.00 0.00 0.00 99 1004.2
20260502042404 49 244 7.0 11.3 0.00 0.00 0.00 99 1004.1
20260502042325 49 246 7.0 11.3 0.00 0.00 0.00 99 1004.2
20260502042204 49 247 7.0 11.3 0.00 0.00 0.00 99 1004.1
20260502042104 49 244 7.0 11.3 0.00 0.00 0.00 99 1004.1
20260502042004 49 243 7.0 11.3 0.00 0.00 0.00 99 1004.1
20260502041904 49 245 7.0 11.3 0.00 0.00 0.00 99 1004.2
20260502041804 49 244 7.0 11.3 0.00 0.00 0.00 99 1004.1
20260502041725 49 246 7.0 11.3 0.00 0.00 0.00 99 1003.9
20260502041624 49 246 7.0 11.3 0.00 0.00 0.00 99 1004.2
20260502041504 49 244 7.0 11.3 0.00 0.00 0.00 99 1004.1
20260502041404 49 244 6.1 11.3 0.00 0.00 0.00 99 1004.2
20260502041304 49 243 6.1 11.3 0.00 0.00 0.00 99 1004.1
20260502041225 49 241 6.1 11.3 0.00 0.00 0.00 99 1004.2
20260502041103 49 242 6.1 11.3 0.00 0.00 0.00 99 1004.1
20260502041004 49 242 6.1 11.3 0.00 0.00 0.00 99 1004.2
20260502040903 49 242 6.1 11.3 0.00 0.00 0.00 99 1004.3
20260502040804 49 244 6.1 9.6 0.00 0.00 0.00 99 1004.0
20260502040703 49 244 6.1 9.6 0.00 0.00 0.00 99 1004.0
20260502040625 49 242 6.1 9.6 0.00 0.00 0.00 99 1004.0
20260502040503 49 243 6.1 9.6 0.00 0.00 0.00 99 1004.0
20260502040404 49 242 6.1 9.6 0.00 0.00 0.00 99 1004.2
20260502040324 49 242 6.1 9.6 0.00 0.00 0.00 99 1004.3
20260502040204 49 242 6.1 9.6 0.00 0.00 0.00 99 1004.3
20260502040103 49 242 6.1 9.6 0.00 0.00 0.00 99 1003.9
20260502040004 49 241 6.1 9.6 0.00 0.00 0.00 99 1003.9
20260502035924 49 242 6.1 9.6 0.00 0.00 0.00 99 1004.0
20260502035804 49 238 6.1 9.6 0.00 0.00 0.00 99 1004.1
20260502035704 49 235 6.1 9.6 0.00 0.00 0.00 99 1004.1
20260502035604 49 237 6.1 9.6 0.00 0.00 0.00 99 1004.0
20260502035504 49 238 6.1 9.6 0.00 0.00 0.00 99 1004.1
20260502035403 49 238 6.1 9.6 0.00 0.00 0.00 99 1004.0
20260502035306 49 238 6.1 11.3 0.00 0.00 0.00 99 1004.2
20260502035203 49 239 6.1 12.2 0.00 0.00 0.00 99 1004.2
20260502035104 49 237 6.1 12.2 0.00 0.00 0.00 99 1004.2
20260502035003 49 237 6.1 12.2 0.00 0.00 0.00 99 1004.0
20260502034904 49 237 6.1 12.2 0.00 0.00 0.00 99 1004.2
20260502034804 49 237 6.1 12.2 0.00 0.00 0.00 99 1004.2
20260502034704 49 238 6.1 12.2 0.00 0.00 0.00 99 1004.2
20260502034604 49 239 7.0 12.2 0.00 0.00 0.00 99 1004.3
20260502034503 49 240 7.0 12.2 0.00 0.00 0.00 99 1004.1
20260502034403 49 240 7.0 12.2 0.00 0.00 0.00 99 1004.1
20260502034303 49 241 7.0 12.2 0.00 0.00 0.00 99 1004.3
20260502034203 49 241 7.0 12.2 0.00 0.00 0.00 99 1004.0
20260502034124 49 243 7.0 12.2 0.00 0.00 0.00 99 1004.2
20260502034004 49 245 6.1 11.3 0.00 0.00 0.00 99 1004.3
20260502033903 49 244 6.1 11.3 0.00 0.00 0.00 99 1004.4
20260502033803 49 243 6.1 11.3 0.00 0.00 0.00 99 1004.5
20260502033703 49 242 7.0 11.3 0.00 0.00 0.00 99 1004.2
20260502033603 49 243 6.1 11.3 0.00 0.00 0.00 99 1004.3
20260502033503 49 241 6.1 11.3 0.00 0.00 0.00 99 1004.3
20260502033404 49 243 6.1 11.3 0.00 0.00 0.00 99 1004.2
20260502033303 49 244 6.1 11.3 0.00 0.00 0.00 99 1004.4
20260502033203 49 244 6.1 11.3 0.00 0.00 0.00 99 1004.4
20260502033124 49 245 6.1 9.6 0.00 0.00 0.00 99 1004.4
20260502033004 49 245 7.0 9.6 0.00 0.00 0.00 99 1004.5
20260502032903 49 246 7.0 12.2 0.00 0.00 0.00 99 1004.2
20260502032804 49 245 7.0 12.2 0.00 0.00 0.00 99 1004.3
20260502032703 49 245 7.0 12.2 0.00 0.00 0.00 99 1004.4
20260502032604 49 242 7.0 12.2 0.00 0.00 0.00 99 1004.2
20260502032503 49 240 7.0 12.2 0.00 0.00 0.00 99 1004.4
20260502032425 49 240 7.0 12.2 0.00 0.00 0.00 99 1004.5
20260502032305 49 240 7.8 12.2 0.00 0.00 0.00 99 1004.3
20260502032204 49 240 7.8 12.2 0.00 0.00 0.00 99 1004.3
20260502032103 49 239 7.0 12.2 0.00 0.00 0.00 99 1004.4
20260502032003 49 239 7.0 12.2 0.00 0.00 0.00 99 1004.4
20260502031903 49 240 7.8 12.2 0.00 0.00 0.00 99 1004.3
20260502031803 49 242 7.0 12.2 0.00 0.00 0.00 99 1004.5
20260502031703 49 244 7.0 12.2 0.00 0.00 0.00 99 1004.4
20260502031603 49 247 7.0 12.2 0.00 0.00 0.00 99 1004.3
20260502031525 49 248 7.0 12.2 0.00 0.00 0.00 99 1004.3
20260502031403 49 247 7.0 12.2 0.00 0.00 0.00 99 1004.3
20260502031303 49 247 7.0 12.2 0.00 0.00 0.00 99 1004.2
20260502031203 49 246 7.0 12.2 0.00 0.00 0.00 99 1004.2
20260502031104 49 246 7.0 12.2 0.00 0.00 0.00 99 1004.2
20260502031003 49 248 7.0 12.2 0.00 0.00 0.00 99 1004.3
20260502030904 49 247 7.0 12.2 0.00 0.00 0.00 99 1004.5
20260502030803 49 248 7.0 12.2 0.00 0.00 0.00 99 1004.4
20260502030704 49 247 7.0 11.3 0.00 0.00 0.00 99 1004.3
20260502030603 49 245 7.0 11.3 0.00 0.00 0.00 99 1004.4
20260502030504 49 244 7.0 11.3 0.00 0.00 0.00 99 1004.5
20260502030403 49 245 7.0 11.3 0.00 0.00 0.00 99 1004.5
20260502030304 49 244 7.0 11.3 0.00 0.00 0.00 99 1004.3
20260502030203 49 244 6.1 9.6 0.00 0.00 0.00 99 1004.2
20260502030104 49 244 6.1 9.6 0.00 0.00 0.00 99 1004.5
20260502030024 49 245 6.1 9.6 0.00 0.00 0.00 99 1004.6
20260502025925 49 241 6.1 9.6 0.00 0.00 0.00 99 1004.4
20260502025804 49 240 6.1 8.7 0.00 0.00 0.00 99 1004.6
20260502025703 49 239 6.1 8.7 0.00 0.00 0.00 99 1004.5
20260502025625 49 239 6.1 8.7 0.00 0.00 0.00 99 1004.4
20260502025503 49 240 6.1 9.6 0.00 0.00 0.00 99 1004.5
20260502025424 49 240 6.1 9.6 0.00 0.00 0.00 99 1004.5
20260502025306 49 238 6.1 9.6 0.00 0.00 0.00 99 1004.3
20260502025203 49 239 6.1 9.6 0.00 0.00 0.00 99 1004.5
20260502025103 49 239 6.1 9.6 0.00 0.00 0.00 99 1004.5
20260502025024 49 239 6.1 9.6 0.00 0.00 0.00 99 1004.4
20260502024903 49 241 6.1 9.6 0.00 0.00 0.00 99 1004.5
20260502024803 49 243 6.1 9.6 0.00 0.00 0.00 99 1004.4
20260502024703 49 243 6.1 9.6 0.00 0.00 0.00 99 1004.3
20260502024603 49 243 6.1 9.6 0.00 0.00 0.00 99 1004.7
20260502024504 49 243 6.1 9.6 0.00 0.00 0.00 99 1004.5
20260502024424 49 242 6.1 9.6 0.00 0.00 0.00 99 1004.4
20260502024303 49 242 5.2 8.7 0.00 0.00 0.00 99 1004.3
20260502024204 49 241 6.1 8.7 0.00 0.00 0.00 99 1004.2
20260502024104 49 239 6.1 8.7 0.00 0.00 0.00 99 1004.5
20260502024024 49 239 6.1 8.7 0.00 0.00 0.00 99 1004.3
20260502023903 49 237 6.1 9.6 0.00 0.00 0.00 99 1004.5
20260502023803 49 233 6.1 9.6 0.00 0.00 0.00 99 1004.5
20260502023703 49 232 6.1 9.6 0.00 0.00 0.00 99 1004.3
20260502023603 49 233 6.1 9.6 0.00 0.00 0.00 99 1004.6
20260502023503 49 235 6.1 9.6 0.00 0.00 0.00 99 1004.5
20260502023403 49 238 6.1 9.6 0.00 0.00 0.00 99 1004.6
20260502023304 49 239 7.0 12.2 0.00 0.00 0.00 99 1004.5
20260502023203 49 238 7.0 12.2 0.00 0.00 0.00 99 1004.7
20260502023103 49 239 7.0 12.2 0.00 0.00 0.00 99 1004.4
20260502023004 49 238 7.0 12.2 0.00 0.00 0.00 99 1004.5
20260502022925 49 237 7.0 12.2 0.00 0.00 0.00 99 1004.7
20260502022804 49 241 7.0 12.2 0.00 0.00 0.00 99 1004.8
20260502022704 49 242 7.0 12.2 0.00 0.00 0.00 99 1004.6
20260502022603 49 241 7.0 12.2 0.00 0.00 0.00 99 1004.6
20260502022525 49 241 7.0 12.2 0.00 0.00 0.00 99 1004.6
20260502022403 49 241 7.0 12.2 0.00 0.00 0.00 99 1004.7
20260502022306 49 239 7.0 12.2 0.00 0.00 0.00 99 1004.7
20260502022224 49 240 7.0 12.2 0.00 0.00 0.00 99 1004.7